EHI
0 0 0 0 0 0 0 0 0 0 0 0 0 0 0 0 0 0 0 0 0 0 0 0 0 0 0 0 0 0 0 0 0 0 0 0 0 0 0 0 0 0 0 0
0 0 0 0 0 0 0 0 0 0 0 0 0 0 0 0 0 0 0 0 0 0 0 0 0 0 0 0 0 0 0 0 0 0 0 0 0 0 0 0 0 0 0 0
0 0 0 0 0 0 0 0 0 0 0 0 0 0 0 0 0 0 0 0 0 0 0 0 0 0 0 0 0 0 0 0 0 0 0 0 0 0 0 0 0 0 0 0
0 0 0 0 0 0 0 0 0 0 0 0 0 0 0 0 0 0 0 0 0 0 0 0 0 0 0 0 0 0 0 0 0 0 0 0 0 0 0 0 0 0 0 0
0 0 0 0 0 0 0 0 0 0 0 0 0 0 0 0 0 0 0 0 0 0 0 0 0 0 0 0 0 0 0 0 0 0 0 0 0 0 0 0 0 0 0 0
0 0 0 0 0 0 0 0 0 0 0 0 0 0 0 0 0 0 0 0 0 0 0 0 0 0 0 0 0 0 0 0 0 0 0 0 0 0 0 0 0 0 0 0
0 0 0 0 0 0 0 0 0 0 0 0 0 0 0 0 0 0 0 0 0 0 0 0 0 0 0 0 0 0 0 0 0 0 0 0 0 0 0 0 0 0 0 0
0 0 0 0 0 0 0 0 0 0 0 0 0 0 0 0 0 0 0 0 0 0 0 0 0 0 0 0 0 0 0 0 0 0 0 0 0 0 0 0 0 0 0 0
0 0 0 0 0 0 0 0 0 0 0 0 0 0 0 0 0 0 0 0 0 0 0 0 0 0 0 0 0 0 0 0 0 0 0 0 0 0 0 0 0 0 0 0
0 0 0 0 0 0 0 0 0 0 0 0 0 0 0 0 0 0 0 0 0 0 0 0 0 0 0 0 0 0 0 0 0 0 0 0 0 0 0 0 0 0 0 0
0 0 0 0 0 0 0 0 0 0 0 0 0 0 0 0 0 0 0 0 0 0 0 0 0 0 0 0 0 0 0 0 0 0 0 0 0 0 0 0 0 0 0 0
0 0 0 0 0 0 0 0 0 0 0 0 0 0 0 0 0 0 0 0 0 0 0 0 0 0 0 0 0 0 0 0 0 0 0 0 0 0 0 0 0 0 0 0
0 0 0 0 0 0 0 0 0 0 0 0 0 0 0 0 0 0 0 0 0 0 0 0 0 0 0 0 0 0 0 0 0 0 0 0 0 0 0 0 0 0 0 0
0 0 0 0 0 0 0 0 0 0 0 0 0 0 0 0 0 0 0 0 0 0 0 0 0 0 0 0 0 0 0 0 0 0 0 0 0 0 0 0 0 0 0 0
0 0 0 0 0 0 0 0 0 0 0 0 0 0 0 0 0 0 0 0 0 0 0 0 0 0 0 0 0 0 0 0 0 0 0 0 0 0 0 0 0 0 0 0
0 0 0 0 0 0 0 0 0 0 0 0 0 0 0 0 0 0 0 0 0 0 0 0 0 0 0 0 0 0 0 0 0 0 0 0 0 0 0 0 0 0 0 0
0 0 0 0 0 0 0 0 0 0 0 0 0 0 0 0 0 0 0 0 0 0 0 0 0 0 0 0 0 0 0 0 0 0 0 0 0 0 0 0 0 0 0 0
0 0 0 0 0 0 0 0 0 0 0 0 0 0 0 0 0 0 0 0 0 0 0 0 0 0 0 0 0 0 0 0 0 0 0 0 0 0 0 0 0 0 0 0
0 0 0 0 0 0 0 0 0 0 0 0 0 0 0 0 0 0 0 0 0 0 0 0 0 0 0 0 0 0 0 0 0 0 0 0 0 0 0 0 0 0 0 0
0 0 0 0 0 0 0 0 0 0 0 0 0 0 0 0 0 0 0 0 0 0 0 0 0 0 0 0 0 0 0 0 0 0 0 0 0 0 0 0 0 0 0 0
0 0 0 0 0 0 0 0 0 0 0 0 0 0 0 0 0 0 0 0 0 0 0 0 0 0 0 0 0 0 0 0 0 0 0 0 0 0 0 0 0 0 0 0
0 0 0 0 0 0 0 0 0 0 0 0 0 0 0 0 0 0 0 0 0 0 0 0 0 0 0 0 0 0 0 0 0 0 0 0 0 0 0 0 0 0 0 0
0 0 0 0 0 0 0 0 0 0 0 0 0 0 0 0 0 0 0 0 0 0 0 0 0 0 0 0 0 0 0 0 0 0 0 0 0 0 0 0 0 0 0 0
0 0 0 0 0 0 0 0 0 0 0 0 0 0 0 0 0 0 0 0 0 0 0 0 0 0 0 0 0 0 0 0 0 0 0 0 0 0 0 0 0 0 0 0
0 0 0 0 0 0 0 0 0 0 0 0 0 0 0 0 0 0 0 0 0 0 0 0 0 0 0 0 0 0 0 0 0 0 0 0 0 0 0 0 0 0 0 0
0 0 0 0 0 0 0 0 0 0 0 0 0 0 0 0 0 0 0 0 0 0 0 0 0 0 0 0 0 0 0 0 0 0 0 0 0 0 0 0 0 0 0 0
Wind_Speed
2 3 2 4 5 4 2 2 3 4 2 1 4 6 6 4 2 2 2 2 3 3 3 2 1 1 1 1 2 2 1 1 0 0 0 1 1 1 1 1 2 2 2 2
3 2 5 3 2 2 2 2 3 3 2 1 3 8 6 4 4 4 4 4 3 2 1 1 1 1 1 2 2 2 2 1 1 1 1 2 2 2 2 2 2 2 2 3
4 3 2 2 1 1 3 4 3 3 3 2 2 6 4 2 1 1 2 2 2 3 3 2 1 1 2 3 3 3 3 2 2 1 0 1 1 1 1 2 2 2 3 3
1 3 1 1 2 2 3 2 3 2 1 3 0 4 5 3 2 1 1 1 1 1 1 1 1 1 2 3 3 3 3 3 2 1 1 1 1 2 3 3 3 3 3 3
1 1 0 2 2 2 3 1 1 1 1 2 2 3 7 1 3 4 3 2 1 1 1 1 1 2 2 3 3 3 2 2 2 2 2 2 2 3 2 2 3 3 3 3
1 1 0 1 1 1 1 3 4 3 2 3 5 5 7 4 5 4 3 2 1 0 0 1 2 2 2 2 2 2 2 2 2 2 2 2 3 3 3 3 3 3 3 3
3 2 2 1 1 2 3 4 3 4 2 6 3 4 8 4 3 4 4 3 1 0 1 1 2 3 3 2 2 2 2 2 2 2 3 3 4 4 4 4 4 4 3 3
1 3 2 1 2 2 2 5 5 4 4 5 2 6 6 2 1 1 2 2 1 0 1 1 1 2 3 2 2 2 2 3 2 3 3 3 3 3 3 4 4 4 4 4
3 3 1 1 1 3 3 2 3 4 0 3 5 5 5 0 1 1 1 1 0 1 1 2 2 2 2 2 3 2 3 3 3 3 3 3 3 3 4 4 4 4 4 4
3 2 2 2 2 2 2 3 4 3 2 4 5 4 4 3 3 1 1 1 2 2 2 3 3 3 2 3 3 3 3 4 4 3 3 3 3 4 4 4 4 4 4 4
2 3 2 2 1 2 1 1 2 2 3 3 4 7 4 5 4 3 3 2 2 2 2 3 3 3 3 3 3 3 4 4 4 4 3 3 4 4 4 4 5 4 4 4
2 4 1 3 2 0 2 3 5 3 3 3 3 8 3 3 3 2 2 2 2 2 2 3 3 3 3 3 4 4 4 4 4 4 3 3 3 3 4 4 5 4 4 4
4 4 2 4 3 2 1 2 3 3 2 3 4 8 2 1 1 1 2 2 3 2 2 3 3 3 3 3 3 4 4 4 4 3 3 4 4 4 4 4 4 4 4 3
5 3 5 7 5 4 3 3 3 4 4 5 8 9 7 5 4 4 3 3 3 3 2 3 3 3 3 3 3 4 4 4 4 3 3 4 4 4 4 4 4 4 3 3
4 3 3 4 3 3 5 6 6 7 8 8 8 8 11 7 5 5 3 3 3 3 3 3 4 4 4 4 4 4 4 4 4 4 4 4 4 4 3 4 4 3 3 3
2 3 1 3 2 3 5 8 8 8 7 9 8 12 9 4 3 4 4 4 4 4 4 4 5 5 5 5 5 4 4 4 4 4 4 4 4 4 3 3 3 3 2 2
2 3 2 3 3 3 7 8 9 7 7 8 11 10 4 4 5 5 5 5 5 5 5 5 5 5 5 5 4 4 5 4 4 4 4 4 4 4 4 3 3 3 3 2
5 4 2 1 3 5 8 2 6 6 7 9 8 6 5 6 5 6 5 5 4 5 5 5 4 5 5 5 4 4 4 3 3 4 4 4 4 4 4 3 2 3 2 3
3 5 3 2 2 8 8 3 4 5 7 6 8 8 5 4 4 4 4 3 4 4 4 4 4 4 4 5 4 3 3 3 3 4 4 4 4 4 3 3 3 2 2 3
3 3 4 3 3 7 7 2 1 2 6 4 5 6 4 0 2 5 3 3 3 3 3 3 3 4 4 4 3 3 3 3 4 4 4 4 4 3 3 3 3 2 2 3
2 2 3 4 5 10 6 2 3 3 7 3 3 5 4 5 6 5 3 3 3 3 3 3 3 3 4 4 3 3 3 4 4 4 4 3 3 3 2 3 2 2 2 2
7 6 5 5 5 10 3 4 6 7 3 2 3 4 4 5 4 4 3 3 3 3 3 3 3 4 4 4 3 3 4 4 4 3 3 3 3 2 2 2 2 2 2 1
7 8 7 9 9 5 4 6 5 2 3 3 3 4 3 4 4 4 3 3 4 4 4 3 3 4 4 3 3 3 4 4 3 3 3 3 3 2 2 1 2 2 1 1
4 2 3 5 8 6 6 5 5 4 4 5 4 4 3 4 4 4 4 3 4 4 4 3 3 4 4 4 3 3 4 3 3 3 3 3 2 2 2 2 2 1 1 1
5 5 3 6 7 6 5 6 6 5 4 4 4 3 4 4 4 4 4 4 4 4 4 3 3 4 5 4 4 3 3 3 2 2 2 2 2 2 2 2 2 2 2 1
5 7 7 8 6 5 7 5 3 3 4 4 4 3 3 3 4 4 4 4 3 3 3 3 3 4 4 3 4 4 3 2 1 2 2 2 2 2 2 2 2 3 2 3
Wind_Direction
59 84 193 215 203 209 193 210 253 260 278 225 241 263 270 262 239 223 220 220 224 230 241 229 212 191 167 158 153 173 174 202 158 185 241 241 256 262 273 268 260 261 260 255
52 254 240 231 215 219 233 254 270 292 321 269 264 273 272 248 217 205 204 211 220 230 276 267 265 222 200 201 197 195 202 205 204 217 233 224 227 242 253 274 283 277 268 261
176 242 229 188 194 221 245 217 231 259 321 331 321 296 273 278 199 191 207 202 202 203 216 231 256 257 236 221 212 214 216 214 220 223 304 327 337 321 312 296 286 279 267 257
238 279 250 177 219 189 243 238 216 234 7 289 155 282 272 246 253 232 225 182 194 218 224 221 224 259 252 238 224 217 220 217 216 194 184 218 240 244 255 256 263 276 270 264
261 309 137 203 236 184 215 290 236 223 165 293 244 224 278 239 242 244 235 229 227 211 183 221 252 249 261 256 225 218 223 225 218 211 207 220 248 252 264 266 272 276 278 272
266 288 247 217 268 183 152 39 35 46 81 266 227 195 268 227 221 228 235 238 231 208 7 347 331 333 315 299 255 227 231 250 244 230 233 234 247 264 270 273 270 274 276 271
340 330 340 35 56 17 69 85 29 354 342 253 222 206 249 244 222 202 207 219 215 141 33 354 351 344 332 316 285 250 238 260 262 251 248 250 247 247 251 255 254 261 269 271
124 282 277 329 180 186 178 145 160 202 236 279 279 234 252 263 231 157 165 180 175 38 336 309 311 321 317 310 302 289 272 271 268 259 257 258 257 249 256 258 254 250 253 259
175 251 317 326 341 143 143 176 170 142 187 274 268 279 296 186 45 71 91 76 267 314 319 320 322 321 313 308 303 291 289 289 282 272 269 266 264 260 262 265 263 261 260 263
157 225 293 318 40 14 141 145 105 131 179 264 282 263 245 239 248 269 259 268 294 323 333 330 323 317 311 313 319 317 299 289 287 282 273 279 272 268 264 265 268 269 268 264
131 153 308 5 184 197 115 110 128 149 177 190 263 269 231 213 208 212 238 249 267 290 304 315 317 319 325 331 328 321 317 307 300 291 283 279 279 278 274 266 266 264 266 261
132 121 242 263 270 207 175 184 153 164 236 206 215 268 282 224 201 192 255 293 308 302 311 318 320 328 334 330 326 327 322 313 300 293 291 285 287 284 278 273 272 266 262 260
136 120 64 344 330 347 260 209 169 147 145 189 206 262 302 13 340 290 278 300 302 295 308 323 325 318 319 319 320 321 317 309 304 300 296 294 293 288 281 278 278 271 261 260
116 139 177 202 220 192 224 228 183 153 186 224 229 256 285 289 292 295 286 280 280 280 294 308 313 307 308 309 307 310 312 308 307 305 295 291 293 291 289 289 286 272 258 249
112 176 226 246 237 197 223 229 203 200 206 215 243 250 266 267 266 272 273 282 289 296 301 295 302 305 305 307 307 307 310 310 308 306 298 291 293 293 298 303 301 285 268 260
101 157 187 283 248 228 256 246 221 222 224 236 259 270 266 272 275 281 280 275 274 284 287 290 296 302 303 300 301 305 307 307 306 300 295 295 297 300 303 305 302 295 284 272
141 137 140 266 315 345 273 233 202 209 211 200 228 246 278 293 276 264 263 254 256 271 282 286 290 292 294 297 294 292 296 300 301 296 295 298 296 295 294 294 292 283 278 266
145 138 149 256 25 247 246 224 186 208 237 220 237 255 257 257 273 269 248 231 253 272 277 281 288 294 297 301 301 294 297 300 300 298 296 300 300 297 298 296 286 279 272 262
152 144 142 153 241 278 289 247 184 198 265 222 227 258 273 295 317 281 235 225 254 269 271 270 276 284 294 299 298 306 306 303 298 295 297 300 299 297 298 296 288 280 278 276
74 110 133 154 199 247 257 261 182 123 277 244 212 239 249 138 286 268 262 288 286 288 285 281 288 298 299 299 301 307 304 307 300 299 301 303 300 295 290 286 283 283 278 271
136 139 171 185 226 261 257 246 119 174 257 276 228 229 211 214 233 254 274 285 281 286 289 288 290 294 293 300 305 303 302 298 300 306 308 313 313 304 302 302 300 304 295 283
171 172 191 171 209 253 224 143 189 227 273 266 258 246 236 252 265 266 267 278 288 293 293 293 292 295 300 303 300 299 297 299 310 314 319 320 323 321 331 322 316 313 301 298
197 193 188 196 217 240 192 206 230 238 256 263 259 265 252 258 264 268 267 272 281 282 284 289 286 296 302 302 290 286 296 312 319 323 321 319 327 334 342 332 320 314 315 326
246 193 190 250 261 260 251 254 263 244 250 265 255 254 243 250 259 269 274 277 283 285 285 287 292 299 301 300 297 287 298 313 315 316 317 321 331 339 346 332 319 313 312 321
216 175 207 252 273 298 277 251 258 264 264 268 270 256 241 240 256 258 268 275 278 288 294 291 286 288 293 300 304 306 309 311 311 314 321 331 333 328 337 342 333 318 307 310
193 182 190 229 225 217 257 261 253 247 256 255 261 275 265 236 250 263 267 271 273 280 290 296 294 292 293 303 309 312 314 308 307 318 328 330 331 330 337 346 354 358 348 347